Location: *
(1.3500°S, 147.5000°W)
Time: 23:49:23
(UTC+00:00)

Okean 1-7 Rocket - Pass Details

Date: 07 April 2020
Orbit: 617 x 648 km, 82.5° (Epoch: 06 June)

Event Time Altitude Azimuth Distance (km) Brightness Sun altitude
Rises 04:27:09 0° 359° (N) 2,878 7.1 -8.9°
Reaches altitude 10° 04:29:21 10° 1° (N) 1,979 6.2 -9.4°
Maximum altitude 04:33:43 76° 85° (E) 645 3.5 -10.5°
Drops below altitude 10° 04:38:10 10° 172° (S) 2,006 6.0 -11.6°
Sets 04:40:25 0° 173° (S) 2,921 6.9 -12.2°
